User: anonymous   Login
Location: *
(40.4270°N, 9.4940°E)
Time: 21:53:14
(UTC+02:00)
Language:

Okean 2 - Orbit

View from above orbital plane
View from above orbital plane
View from above satellite
View from above satellite

Ground track
Ground track

The orbit data is extracted from the following two-line orbital elements,

1 20510U 90018A   16180.97595844  .00000305  00000-0  23124-4 0  9997
2 20510  82.5159 150.5230 0014110  94.2903 323.1428 14.98577757428546
Epoch (UTC): 28 June 2016 23:25:22
Eccentricity: 0.0014110
inclination: 82.5159°
perigee height: 561 km
apogee height: 581 km
right ascension of ascending node: 150.5230°
argument of perigee: 94.2903°
revolutions per day: 14.98577757
mean anomaly at epoch: 323.1428°
orbit number at epoch: 42854

The dashed part of the orbit path shows where the satellite is in the earth's shadow,  

DLR